STARLINK-11281 [DTC]

Last updated on Sun Oct 06 2024 00:02:04 GMT+0000 (Coordinated Universal Time)

1 60996U 24158G 24279.41466157 .00007832 00000+0 51752-4 0 9991 2 60996 53.1573 326.4602 0001014 65.9405 294.1722 15.76751254 5863
UTC large
Height (km)
Speed (km/s)
/
Latitude / Longitude
Inclination (degrees)
Orbital Period (minutes)
Azimuth
Elevation
Range (km)
Doppler Factor

Next 0 passes for location: London (51.5072 / 0.1276)

Sorry there are no passes over London.